Location: Newark
(50.4348°N, 30.5552°E)
Time: 04:57:31
(UTC+00:00)

Altair - Pass Details

Date: 29 January 2020
Orbit: 1502 x 1682 km, 47.2° (Epoch: 17 February)

Event Time Altitude Azimuth Distance (km) Brightness Sun altitude
Rises 06:11:00 0° 234° (SW) 4,861 9.9 3.7°
Reaches altitude 10° 06:14:10 10° 231° (SW) 3,895 9.5 4.1°
Maximum altitude 06:23:53 58° 156° (SSE) 1,904 8.6 5.4°
Drops below altitude 10° 06:33:45 10° 81° (E) 3,946 10.4 6.6°
Sets 06:36:58 0° 78° (ENE) 4,929 10.7 7.0°
